Regional Weather Roundup
Issued by NWS

Home | Current Version | Previous Version | Text Only | Print | Product List | Glossary Off
Versions: 1 2 3 4 5 6 7 8 9 10 11 12 13 14 15 16 17 18 19 20 21 22 23 24 25 26 27 28 29 30 31 32 33 34 35 36 37 38 39 40 41 42 43 44 45 46 47 48 49 50

000
ASUS43 KLMK 271510
RWRKY
NATIONAL WEATHER SERVICE LOUISVILLE KY
1000 AM EST THU NOV 27 2014

NOTE "FAIR" INDICATES FEW OR NO CLOUDS BELOW 12,000 FEET
WITH NO SIGNIFICANT WEATHER AND/OR OBSTRUCTIONS TO VISIBILITY.

KYZ001>023-026-027-061>063-070>075-271600-
WESTERN AND SOUTH CENTRAL KENTUCKY

CITY           SKY/WX    TMP DP  RH WIND       PRES   REMARKS
PADUCAH        PTSUNNY   33  25  72 N16G24    30.45R WCI  23
HENDERSON      CLOUDY    28  21  74 NW17      30.43R WCI  16
OWENSBORO      CLOUDY    29  25  85 N16       30.41R WCI  17
HOPKINSVILLE   CLOUDY    34  28  80 NW12      30.39R WCI  25
BOWLING GREEN  CLOUDY    34  26  72 NW10      30.37R WCI  26
GLASGOW        CLOUDY    33  29  86 NW7       30.33R WCI  27
$$

KYZ024-025-028>034-038-045-046-053-271600-
NORTH CENTRAL KENTUCKY

CITY           SKY/WX    TMP DP  RH WIND       PRES   REMARKS
LOUISVILLE/SDF CLOUDY    32  24  72 NW12      30.33R WCI  23
LOUISVILLE/LOU CLOUDY    31  23  72 NW9       30.33R WCI  23
FORT KNOX      CLOUDY    29  25  82 NW6       30.32R WCI  23
$$

KYZ035>037-039>044-047>052-055>060-089>105-271600-
NORTHEAST KENTUCKY

CITY           SKY/WX    TMP DP  RH WIND       PRES   REMARKS
LEXINGTON      CLOUDY    30  24  78 NW9       30.26R WCI  22
COVINGTON      CLOUDY    32  21  64 NW14      30.26R WCI  22
FRANKFORT      CLOUDY    30  22  72 NW10      30.27R WCI  21
$$

KYZ054-064>069-076>088-106>120-271600-
SOUTHEAST KENTUCKY

CITY           SKY/WX    TMP DP  RH WIND       PRES   REMARKS
JACKSON        CLOUDY    32  27  81 VRB6      30.20R WCI  26
LONDON         CLOUDY    34  28  79 NW8       30.24R WCI  27
SOMERSET       CLOUDY    32  30  93 NW6       30.29R WCI  26
MIDDLESBORO    NOT AVBL
MONTICELLO     CLOUDY    34  30  86 NW10      30.32R WCI  26
$$



USA.gov is the U.S. government's official web portal to all federal, state and local government web resources and services.